Theta_e
360 360 362 364 364 363 360 360 362 363 364 359 360 360 360 358 358 356 357 357 355 356 354 354 357 356 354 353 353 356 357 358 360 358 358 359 360 365 371 369 368 369 369 370 371 372 372 371 370 371 369 369 368 368 368 368 367 367 365 364 363 363 362 362 361 360 361 362 361 361 360 361 361 361 361 361 360 359 360 360 359 359 359 359 360
361 360 360 361 362 362 362 360 360 360 360 360 359 359 357 356 356 357 355 355 355 355 356 353 352 352 352 351 351 350 359 356 357 355 358 358 359 362 373 371 370 369 370 371 371 372 372 372 372 371 370 370 368 369 369 368 367 367 366 365 364 363 363 362 362 362 361 361 362 361 361 361 360 361 361 361 361 360 359 360 360 359 359 360 359
360 361 363 360 362 363 361 362 359 358 359 359 360 360 358 356 356 355 358 357 355 354 354 354 354 352 353 351 351 353 351 355 352 352 354 357 358 359 369 372 369 370 371 371 372 372 373 373 372 372 372 371 370 370 369 368 368 367 367 366 365 364 363 362 362 362 362 362 362 361 361 361 361 361 361 362 361 361 360 360 360 359 360 360 360
361 363 362 360 361 360 360 360 358 359 360 359 359 360 360 358 357 356 357 358 357 355 355 351 351 349 350 349 353 352 353 352 349 352 353 352 349 354 363 369 371 369 370 371 372 373 372 373 373 373 372 372 371 370 370 369 368 367 367 366 366 365 364 363 363 362 362 362 362 362 362 362 361 361 361 361 362 361 361 361 360 359 359 360 360
363 364 364 361 360 360 359 359 360 361 360 359 357 362 360 358 358 357 356 356 354 353 352 353 350 351 349 350 352 352 352 351 351 349 350 349 347 350 354 358 364 373 370 371 370 372 373 373 373 373 373 372 372 370 370 370 369 368 367 367 367 366 365 364 364 362 362 363 362 362 362 362 361 361 361 362 361 361 362 361 361 360 359 359 360
365 364 362 360 359 359 356 357 359 360 361 359 357 359 358 357 354 355 351 352 351 347 348 347 347 348 351 350 351 350 346 346 348 348 351 350 350 353 351 348 354 368 369 371 370 370 372 374 374 374 374 373 372 371 370 368 368 367 367 367 367 367 366 365 363 363 363 363 363 363 362 362 362 361 361 361 361 361 361 361 361 361 361 361 361
366 364 361 359 356 355 355 356 359 362 358 358 358 360 358 356 354 352 353 354 348 354 348 348 347 348 346 349 347 348 348 344 346 345 348 354 352 348 351 351 353 358 364 371 369 369 371 374 374 374 374 373 373 372 371 369 368 367 367 367 367 367 366 365 364 363 363 363 363 362 363 362 362 362 361 360 360 361 361 360 360 359 360 360 361
368 367 360 358 356 356 355 361 361 360 357 358 362 359 357 355 357 356 352 349 349 348 350 349 349 348 347 345 346 346 347 348 345 347 348 351 350 351 354 354 357 358 361 360 367 370 371 373 375 375 375 374 373 373 372 370 368 367 367 366 366 366 366 366 364 364 363 364 363 363 362 362 362 362 362 361 361 361 361 361 360 360 360 361 361
369 368 363 358 355 356 355 357 359 358 356 357 357 356 356 353 357 358 352 349 347 349 352 354 352 354 350 345 345 349 348 350 349 350 350 351 352 349 351 357 358 359 358 360 364 370 373 372 376 376 376 376 374 374 373 372 370 367 367 366 365 364 363 364 363 364 363 362 363 364 363 363 362 362 362 362 361 361 361 362 360 360 360 361 361
367 365 364 360 360 359 358 359 359 357 357 357 356 357 359 357 355 357 354 354 353 351 355 355 352 347 348 346 344 344 349 347 351 355 352 351 353 352 354 355 355 356 356 361 360 367 369 370 375 377 377 376 375 375 374 373 370 366 365 363 366 366 365 364 364 363 364 361 363 362 362 363 363 362 362 362 362 362 362 362 362 361 361 362 362
366 368 366 359 358 358 360 360 360 357 357 357 358 359 358 358 356 355 360 360 357 354 352 353 349 346 343 340 341 345 350 347 353 352 346 349 350 353 352 358 360 362 366 363 361 365 366 366 371 372 373 377 374 374 375 375 372 369 364 361 361 361 360 361 362 364 362 361 360 362 361 362 363 363 363 363 361 362 362 362 362 362 361 361 361
367 368 368 363 358 358 358 358 359 358 356 356 356 357 356 358 356 355 359 358 359 359 358 355 350 343 338 338 342 342 346 350 348 344 347 350 352 355 353 355 359 361 359 359 360 361 364 365 368 365 367 374 376 373 374 374 367 358 357 355 357 359 359 356 356 359 359 358 356 356 357 355 354 358 359 362 362 361 361 361 362 361 362 361 361
366 364 364 363 363 359 361 359 358 359 358 358 359 360 364 365 357 360 350 353 352 356 356 353 342 336 337 338 341 344 347 351 342 344 350 351 355 354 353 352 354 353 357 357 357 358 358 364 363 366 365 366 373 367 369 356 347 351 353 354 354 355 357 358 356 357 358 356 357 358 356 357 354 356 350 354 352 352 357 359 361 360 360 361 362
365 367 368 364 361 357 358 356 358 361 362 365 365 366 365 360 358 358 359 354 353 353 355 345 335 333 333 333 337 344 348 346 340 346 348 348 351 353 353 349 349 350 353 353 355 354 354 357 364 361 365 368 363 362 363 355 353 355 355 354 356 359 358 358 356 355 356 355 353 356 356 356 356 357 356 355 353 352 352 357 357 360 360 360 361
363 366 366 363 359 358 358 357 360 361 360 361 360 361 358 357 361 355 355 357 354 353 351 343 335 336 339 336 333 333 339 341 341 345 339 343 347 347 348 347 348 350 350 352 353 356 352 355 356 362 365 367 365 367 367 361 357 358 356 356 356 356 359 359 358 355 356 355 354 354 354 356 357 358 357 356 357 356 357 359 359 361 361 361 360
358 358 358 360 362 362 359 356 361 365 360 358 360 356 358 358 359 358 358 352 350 346 345 342 341 338 334 335 334 333 329 335 337 340 341 341 340 339 341 341 344 347 349 349 348 352 355 355 356 361 365 366 367 365 361 367 361 360 360 358 357 356 358 355 351 354 357 357 355 355 354 355 357 359 358 356 356 356 356 358 359 360 361 361 359
359 360 359 361 366 367 362 361 359 362 360 357 355 354 358 358 359 357 356 351 345 340 339 341 341 344 339 335 333 332 332 333 335 336 339 338 339 340 341 340 342 344 345 346 348 352 351 352 359 360 362 364 364 364 365 362 363 364 362 359 358 357 356 355 356 356 357 357 357 356 356 356 357 358 358 357 357 357 357 356 357 359 361 362 360
357 359 361 360 364 366 367 363 358 358 357 358 358 358 357 355 356 356 353 352 344 339 335 342 343 342 342 342 341 334 333 334 333 329 339 338 338 339 339 339 341 343 346 346 347 348 352 353 356 358 360 363 362 360 362 363 363 362 363 362 359 357 355 356 355 357 356 356 357 357 357 356 357 358 358 358 358 359 358 357 357 358 360 362 361
357 361 362 369 368 366 369 366 361 360 362 359 357 357 355 355 357 354 351 348 346 338 338 337 343 342 342 343 343 342 341 335 330 332 329 334 336 336 337 340 341 342 343 343 346 347 349 351 352 355 355 359 362 362 364 362 357 358 357 356 356 357 356 356 356 358 358 359 358 358 357 357 358 359 359 359 360 360 360 359 358 358 359 360 362
358 366 367 365 367 363 370 369 363 361 360 358 358 356 356 356 357 355 351 346 344 339 341 340 337 340 343 342 343 341 341 338 337 333 330 329 331 335 338 339 340 341 343 342 343 345 345 347 348 351 354 354 359 361 362 361 364 364 360 355 354 355 357 357 358 358 359 361 361 359 359 358 359 359 359 359 359 359 360 361 360 360 360 360 361
365 367 366 365 369 365 369 368 367 365 363 358 358 357 356 355 354 349 344 342 343 343 345 342 341 339 342 343 342 340 339 338 338 338 333 330 329 331 332 337 339 340 342 344 345 345 345 347 347 352 355 355 354 356 358 358 356 355 356 355 354 354 355 358 358 359 361 361 361 360 359 359 358 359 360 360 360 359 358 359 360 361 361 361 361
358 369 371 370 367 370 365 361 362 361 362 362 359 358 355 353 350 345 345 345 344 343 343 343 343 343 341 342 339 337 337 336 337 336 337 337 330 329 332 331 330 335 341 342 344 345 345 346 347 350 351 354 355 357 361 355 357 356 355 358 357 353 356 355 356 355 356 359 362 361 358 359 359 360 359 359 360 359 359 359 360 360 361 361 361
354 358 357 360 366 367 360 358 361 367 362 359 358 354 352 350 348 346 344 346 344 346 344 345 345 343 342 340 338 337 335 333 335 335 335 334 333 332 332 335 331 331 337 342 343 344 344 346 349 347 349 351 354 359 360 358 357 356 356 357 357 357 356 355 356 356 358 359 359 359 358 358 359 360 360 360 359 359 359 360 361 361 361 359 360
354 353 354 354 361 359 364 365 365 363 360 358 357 354 352 350 345 343 343 346 348 346 345 344 344 343 342 341 339 339 339 337 338 338 336 336 335 334 333 334 334 333 336 340 342 343 343 347 348 348 347 349 352 354 354 354 356 355 355 355 356 355 356 356 356 356 356 357 357 358 359 359 359 359 360 360 360 360 359 359 360 361 361 360 359
353 352 352 355 359 364 365 364 364 364 363 358 356 355 352 346 343 342 345 347 347 347 342 342 342 342 341 341 340 339 338 341 341 339 341 340 338 334 335 338 331 332 335 336 338 341 344 347 347 347 346 348 352 350 352 354 354 353 355 353 353 353 355 354 354 355 356 355 355 356 357 356 356 355 354 356 359 360 359 359 360 361 361 361 361
353 353 354 356 357 363 364 366 366 364 362 359 355 353 351 346 344 344 344 347 348 347 344 343 344 344 344 341 341 339 339 342 342 341 341 340 337 336 336 336 333 332 334 335 338 337 342 346 347 347 350 348 350 353 354 353 353 352 353 352 351 351 351 352 352 351 352 352 351 351 353 354 355 356 357 356 355 356 357 357 357 360 362 361 362
353 357 362 361 361 365 362 364 362 362 360 356 350 351 350 348 347 346 347 346 347 345 342 342 341 344 344 343 341 340 340 341 341 341 342 342 340 338 337 332 332 332 331 333 337 337 338 345 347 344 346 350 351 349 351 352 351 351 351 352 349 348 348 348 350 352 353 352 350 350 351 352 352 354 356 356 354 352 353 357 355 354 352 354 356
357 360 362 362 363 363 363 362 363 359 357 356 353 351 350 348 346 347 344 343 345 345 344 343 344 345 345 345 344 341 342 342 342 343 343 343 343 341 340 338 333 329 331 330 332 335 339 340 346 348 347 348 352 352 350 351 351 349 350 349 347 346 346 346 347 348 350 353 353 350 351 350 350 351 353 353 351 352 354 352 351 351 351 351 354
354 360 362 366 364 363 361 358 359 357 356 354 350 350 350 348 345 347 345 345 347 345 346 347 346 345 345 346 344 342 342 343 343 344 343 345 344 344 342 338 338 334 331 329 331 334 337 339 341 344 347 351 351 351 350 351 349 350 348 347 345 345 344 343 344 345 346 348 351 352 351 351 351 351 350 349 349 352 352 351 350 353 352 352 354
357 357 360 363 365 361 362 360 357 355 353 351 349 349 349 346 347 347 347 348 348 348 348 346 346 346 346 349 349 343 343 343 343 344 344 345 344 344 343 342 342 337 335 332 332 337 337 343 344 344 349 348 348 348 350 351 348 350 348 346 345 344 343 343 342 342 342 343 345 348 350 349 350 350 349 349 351 351 352 354 355 354 354 356 357
359 363 364 362 363 361 362 358 357 355 352 351 349 349 349 347 345 342 347 350 349 348 348 348 347 346 345 346 347 342 345 346 344 344 344 344 344 344 342 344 343 342 339 337 333 337 341 340 343 346 346 346 343 346 348 350 348 348 348 346 344 345 343 342 341 340 340 340 341 344 347 350 351 351 351 352 351 351 352 353 353 353 355 355 357
359 361 362 361 361 361 357 355 354 353 351 349 349 348 348 348 344 343 346 349 348 348 347 348 348 346 346 344 346 347 347 346 345 344 341 343 345 343 343 344 344 343 342 339 336 336 342 342 342 344 345 344 347 348 345 348 347 347 348 346 345 345 343 341 339 339 338 338 338 340 343 347 351 352 352 351 350 351 351 352 351 351 351 352 354
360 360 361 364 363 360 357 356 354 355 353 350 349 349 350 348 347 349 349 351 349 348 349 348 348 350 349 347 347 348 349 347 343 343 340 341 343 343 343 343 341 343 343 342 338 337 339 345 345 343 343 344 345 346 345 344 346 347 346 347 346 343 342 340 338 337 337 337 336 336 338 340 344 347 349 349 348 348 349 349 349 349 349 349 347
360 360 362 362 362 360 358 356 355 354 354 352 348 348 347 346 346 347 349 350 349 348 347 346 347 347 347 346 345 345 348 346 344 341 340 339 340 341 342 342 340 341 344 342 341 339 338 343 344 343 342 345 340 346 344 342 344 347 344 343 343 342 340 340 338 336 336 336 335 335 335 336 338 340 343 344 344 343 342 341 341 341 341 342 344
361 361 362 360 362 361 358 356 356 355 353 349 348 347 347 348 346 347 349 348 347 346 344 345 345 346 344 344 343 344 346 344 342 342 342 339 339 339 339 341 340 342 343 344 341 338 339 341 344 342 342 344 344 344 345 344 346 345 342 340 339 340 340 339 338 336 336 335 334 334 333 334 334 335 337 338 337 337 337 336 335 334 333 334 335
357 360 361 361 363 363 358 357 355 355 352 350 348 349 348 348 348 347 347 346 345 346 346 345 344 344 343 342 341 342 343 343 342 341 340 340 340 341 340 342 343 342 343 344 344 342 341 340 343 343 345 345 345 346 346 344 343 341 340 340 340 339 339 338 337 337 336 336 335 334 333 333 332 332 333 334 334 334 332 330 330 330 329 330 332
357 361 362 363 364 362 356 356 355 354 353 351 351 350 348 349 347 345 347 347 346 347 346 345 342 343 343 343 344 342 343 340 340 339 340 340 339 340 340 341 341 341 342 343 343 344 342 341 342 345 345 344 345 345 345 342 341 341 340 339 337 337 337 337 337 337 337 338 336 334 334 333 333 332 331 331 331 331 331 330 329 328 328 328 329
364 363 364 362 360 359 357 356 355 356 355 354 352 350 348 347 346 346 346 346 345 347 346 344 344 344 342 344 344 345 345 342 340 341 342 340 340 340 341 341 341 341 342 342 343 343 342 340 342 341 344 342 343 344 344 343 340 338 338 338 338 337 336 335 335 336 336 336 336 335 335 334 333 332 331 331 330 331 331 331 330 328 327 326 326
368 364 366 363 360 358 359 358 355 357 354 352 351 350 348 348 347 347 346 346 346 346 346 345 344 344 343 341 344 346 346 345 343 341 341 340 339 341 342 342 342 342 342 341 342 341 342 340 340 344 342 342 342 339 342 344 341 341 337 335 334 336 335 334 334 335 336 335 336 336 336 336 335 333 331 331 330 331 331 330 331 330 328 326 325
368 367 367 361 360 360 359 359 358 357 355 353 352 351 349 349 348 347 345 346 346 346 346 345 345 344 343 342 342 346 347 348 346 345 344 342 341 340 342 343 342 341 340 340 341 340 340 340 339 338 339 339 340 341 341 342 338 335 336 335 332 332 333 334 334 334 335 336 334 334 336 337 337 336 334 333 332 331 330 330 330 331 330 327 326
364 365 366 362 360 360 361 359 358 355 353 352 351 349 349 348 348 346 345 345 346 345 344 343 344 344 342 342 343 345 349 346 345 345 343 342 341 341 343 344 343 342 341 340 341 340 339 340 339 339 338 338 338 337 336 335 333 332 334 335 334 334 334 332 333 336 336 334 334 335 335 335 334 334 335 333 333 332 330 329 329 330 329 328 326
366 367 367 363 362 361 359 358 356 353 351 350 348 346 346 347 347 345 346 346 346 345 344 343 343 342 340 342 341 343 345 346 345 344 342 342 340 340 343 345 344 343 341 340 340 340 339 338 337 337 335 335 336 338 337 338 338 337 335 335 333 332 334 332 332 335 337 335 333 331 333 336 335 334 333 332 332 331 328 327 325 326 325 325 325
366 367 365 362 361 360 357 355 353 350 349 347 345 343 345 344 346 347 345 346 347 345 345 344 343 342 341 339 343 344 345 346 345 342 342 342 341 339 340 341 342 344 342 340 339 340 339 337 338 338 336 337 337 339 337 336 336 335 335 336 333 333 332 329 326 332 337 336 333 332 332 335 334 328 328 329 329 329 328 324 324 323 323 323 323
367 365 362 361 360 358 355 354 352 349 349 347 339 341 343 344 343 346 344 344 344 345 344 344 343 341 340 337 339 343 344 346 344 346 345 342 340 340 340 340 341 342 341 343 342 340 341 338 338 338 338 337 337 339 336 336 336 336 336 335 334 333 331 329 329 327 334 338 335 331 329 331 329 324 323 323 325 325 324 323 322 322 322 322 322
367 364 364 361 359 357 355 352 349 348 348 342 338 340 340 340 342 343 344 345 344 343 344 342 342 340 340 341 337 341 342 338 341 342 344 345 338 338 339 342 343 341 339 340 342 345 344 341 339 339 339 338 338 338 339 339 340 337 336 333 333 332 331 330 330 330 333 338 335 331 328 330 329 324 320 321 322 324 323 322 321 321 321 320 320
365 363 362 362 359 357 356 353 350 348 350 342 337 338 338 338 340 341 346 344 344 343 343 340 339 342 343 341 340 339 342 343 343 342 343 342 342 342 342 342 345 344 344 343 343 343 344 344 342 340 342 343 339 340 343 344 340 336 334 332 333 331 331 330 333 333 336 337 333 332 328 329 331 326 323 322 321 321 322 319 319 319 319 319 319
365 364 362 361 360 358 356 353 350 348 350 337 335 336 335 335 337 340 346 343 343 342 340 340 344 343 344 342 341 340 342 342 344 343 341 339 340 341 340 341 343 343 344 345 346 346 345 344 343 343 343 343 343 344 345 345 343 341 339 336 336 335 334 338 336 336 335 337 337 335 326 329 333 329 327 325 323 322 323 319 319 319 319 318 318
366 365 363 362 359 357 356 354 351 350 347 333 334 333 332 333 337 341 345 343 339 339 340 342 343 343 344 343 342 341 343 342 340 339 335 340 341 341 339 340 342 342 342 340 336 340 346 347 347 346 345 345 342 348 347 346 344 344 343 342 339 337 334 331 327 331 331 335 337 333 329 328 333 329 328 328 326 323 323 321 319 319 318 318 318
364 363 362 361 360 358 356 355 353 352 347 335 330 329 328 330 337 344 344 338 339 340 342 342 341 342 343 344 343 342 342 343 339 331 335 336 341 341 340 339 339 341 342 343 337 336 336 334 333 334 334 334 334 333 333 335 344 345 343 338 334 335 332 328 328 329 328 333 335 336 331 328 331 331 328 329 329 326 324 323 321 319 318 318 317
363 363 362 359 359 358 356 354 354 353 351 338 327 325 325 328 338 345 339 339 340 342 341 341 341 342 345 345 345 342 342 341 335 330 331 340 340 342 340 338 336 337 338 341 344 343 336 336 336 336 336 336 336 339 339 340 340 343 344 335 337 335 332 331 325 327 329 332 332 334 331 326 330 331 328 328 329 330 328 327 326 322 319 317 316
365 363 360 359 357 358 357 356 352 354 353 339 323 323 324 326 337 344 339 341 342 342 340 339 341 341 342 342 341 344 342 342 328 330 329 340 337 339 340 339 336 336 338 342 342 343 344 345 345 344 343 343 346 346 346 341 343 343 345 343 340 335 331 328 329 328 324 328 335 338 329 328 330 326 327 324 322 325 331 332 330 328 328 328 325
Wind_Speed
1 2 2 3 3 4 4 4 4 4 5 5 5 5 6 6 6 7 6 6 7 7 7 7 7 6 6 6 5 4 4 3 1 6 6 4 3 9 14 14 13 14 15 16 16 18 20 21 22 22 22 22 21 21 20 20 19 19 19 19 19 19 19 19 20 20 19 19 19 19 19 19 19 18 18 17 17 18 17 17 17 16 16 16 16
2 2 2 3 3 3 3 4 4 4 5 5 5 6 6 6 6 7 8 8 8 7 7 8 8 8 7 8 6 6 4 4 4 5 3 4 4 5 15 13 13 14 15 15 16 17 18 20 21 22 22 23 22 22 21 21 20 20 19 20 20 20 20 20 20 20 20 20 20 20 20 19 19 18 18 17 18 18 18 18 17 17 16 16 16
2 2 2 3 3 3 4 4 4 5 5 6 6 6 6 7 7 7 7 8 8 7 7 8 8 8 9 9 8 7 7 6 6 6 4 5 5 2 9 14 14 14 14 16 16 17 18 18 21 21 22 23 23 22 22 22 21 20 20 20 20 20 20 20 20 20 20 21 21 21 20 20 19 19 18 18 18 17 17 18 18 17 17 17 16
3 4 4 4 4 5 4 4 4 5 5 6 6 6 6 7 8 8 8 7 7 8 8 9 12 12 13 14 10 10 9 8 9 8 6 5 5 6 1 6 14 14 14 15 16 17 18 19 19 21 22 23 23 24 23 22 22 21 20 21 21 20 21 21 20 21 21 20 21 20 20 20 20 19 19 19 18 18 17 16 16 17 17 17 16
2 3 4 4 4 4 4 4 4 5 6 7 7 5 6 7 7 9 8 9 9 10 12 10 10 10 12 13 10 10 9 8 8 9 8 6 4 4 2 4 6 13 15 15 16 16 17 18 19 20 21 22 23 24 24 23 23 22 21 21 21 21 21 21 21 21 21 20 20 20 20 20 20 19 19 19 19 18 17 16 15 15 16 16 16
4 3 4 4 4 3 4 4 4 6 6 5 6 6 7 8 8 9 11 11 12 13 11 12 10 11 10 12 11 10 9 9 8 7 7 8 6 2 5 7 8 5 8 16 16 16 16 17 19 19 20 22 23 24 24 24 24 24 23 22 22 21 21 21 21 21 21 21 21 20 20 19 19 19 19 20 19 19 18 17 16 15 15 15 15
2 4 4 4 4 4 4 4 5 6 5 4 5 5 6 7 7 9 8 10 11 7 11 10 11 12 12 11 11 10 10 10 8 8 6 6 7 8 7 6 7 6 9 7 13 15 15 16 17 19 19 21 22 23 24 24 23 24 23 23 23 22 22 21 21 20 21 21 20 20 20 20 19 19 19 19 19 19 18 18 18 17 15 15 16
3 3 5 4 5 5 4 4 5 5 4 4 4 5 6 6 7 8 7 9 12 11 9 10 12 13 12 11 11 10 9 7 9 7 6 5 5 6 5 6 5 5 6 5 5 10 16 14 15 16 18 19 20 21 22 23 23 23 23 23 23 23 21 21 21 20 20 20 20 20 20 20 19 19 19 19 18 18 18 18 18 18 16 16 16
3 3 5 4 4 5 5 5 5 5 4 5 5 5 6 8 7 7 9 9 10 12 11 11 12 11 13 13 11 9 8 7 6 6 4 5 5 6 5 2 4 8 4 6 6 3 11 13 12 14 16 18 18 19 21 22 24 23 23 22 21 22 21 20 19 18 19 21 20 20 20 20 20 20 19 19 19 18 18 18 18 19 18 17 16
3 3 4 5 5 5 5 6 6 5 4 5 5 6 6 7 8 8 8 7 7 9 10 12 11 12 12 12 11 8 7 7 5 4 4 5 4 6 4 4 4 3 3 4 4 2 5 8 8 10 13 16 17 17 18 20 21 24 20 21 21 20 19 20 20 19 18 18 19 19 20 20 20 20 19 19 19 19 18 18 18 17 17 17 16
3 3 4 5 5 5 5 5 5 4 4 5 5 6 7 8 10 10 8 6 7 10 11 11 13 13 11 13 10 8 6 5 4 4 6 5 4 6 4 2 2 2 1 4 3 1 1 3 4 3 6 14 15 16 17 18 20 21 18 14 17 14 15 17 19 18 15 15 15 16 18 19 20 19 19 19 19 19 19 18 18 17 18 17 17
3 4 5 6 6 5 5 5 4 4 4 5 5 6 9 10 11 10 10 9 8 8 10 11 14 13 12 10 8 7 7 5 7 9 6 6 6 5 5 4 1 1 3 4 3 3 3 1 2 4 6 11 16 15 16 17 11 7 9 9 12 10 14 8 11 14 14 14 10 14 12 11 12 16 17 17 17 17 18 18 18 17 17 17 17
4 5 5 5 5 4 4 4 4 4 4 5 6 8 8 8 8 8 11 11 11 9 9 11 12 10 10 10 6 5 5 4 11 7 6 6 5 4 4 5 5 5 4 2 4 5 5 3 2 2 3 3 6 10 12 7 5 12 12 12 15 15 13 15 19 18 11 8 9 17 10 14 11 13 7 16 5 9 11 12 15 14 15 17 18
5 5 6 6 4 4 3 3 3 4 5 6 7 7 8 8 9 8 8 10 10 11 9 11 10 11 11 9 6 4 4 7 11 8 7 5 4 6 6 5 6 6 4 4 5 5 4 5 4 4 3 3 2 6 5 7 10 13 10 11 14 16 17 16 17 16 13 8 7 9 11 14 16 14 12 13 11 16 19 16 17 16 18 18 19
5 5 4 4 3 3 4 2 3 4 5 6 7 8 7 9 8 9 9 9 9 9 8 9 9 11 9 7 6 6 4 8 10 8 9 7 7 6 6 7 7 6 5 4 3 4 5 3 4 4 4 2 0 1 6 8 8 11 13 13 12 11 12 12 11 10 12 13 17 17 13 15 18 16 19 17 18 20 20 19 19 19 19 18 16
3 4 3 1 2 3 4 3 3 3 5 6 7 8 8 8 7 9 9 10 10 10 8 8 7 9 8 8 7 6 7 8 11 7 9 9 9 9 8 7 7 5 4 5 7 6 4 5 6 4 4 5 4 2 3 3 5 10 11 11 13 12 11 9 9 16 19 18 17 14 14 12 14 18 17 17 19 18 17 18 18 19 19 19 19
3 2 3 1 1 2 3 4 4 4 4 5 6 9 7 7 6 8 10 9 11 9 7 8 8 7 6 7 5 6 8 8 9 6 6 7 9 9 8 7 6 6 6 6 6 5 6 5 4 4 4 5 4 4 3 3 4 4 4 7 8 9 10 9 15 18 17 16 17 17 17 17 17 16 19 22 22 21 21 19 19 19 20 20 20
1 2 2 2 1 2 3 5 4 4 4 6 7 7 5 6 8 8 9 9 8 8 8 6 6 7 7 7 6 5 6 9 9 7 9 6 7 6 8 7 6 7 6 5 7 6 5 4 5 5 6 6 6 4 3 3 2 2 3 5 7 6 6 5 11 17 17 19 18 18 18 20 20 19 20 21 20 21 22 20 20 21 18 16 19
3 3 3 1 2 2 3 4 4 5 5 5 6 6 6 6 6 8 8 7 7 6 7 6 4 7 7 6 5 4 6 8 9 8 8 7 8 9 8 9 8 7 7 8 7 6 5 5 6 6 7 5 5 4 2 3 4 5 8 9 10 11 15 14 12 14 17 18 16 16 18 18 19 20 20 20 20 20 21 20 20 20 19 18 20
3 2 2 1 2 3 2 4 4 5 4 5 4 5 5 4 5 5 5 5 5 6 6 6 6 5 6 7 5 5 6 8 10 9 8 8 9 8 9 9 7 8 7 8 8 7 7 7 8 6 5 6 5 4 5 6 4 3 3 3 6 7 11 14 14 14 15 15 15 17 18 19 19 19 20 20 20 19 19 18 20 21 21 20 20
2 2 2 2 3 3 3 4 4 4 4 3 3 5 5 5 5 5 6 5 5 5 4 5 6 6 5 6 6 7 6 9 10 9 7 8 9 9 10 9 6 6 7 7 7 7 7 7 7 6 5 6 10 8 7 7 7 6 6 3 1 3 8 10 11 11 11 9 13 15 17 17 18 18 18 18 19 21 21 20 19 20 21 21 21
1 2 2 2 3 3 3 3 3 2 3 4 2 3 3 3 6 6 5 4 4 5 5 4 5 5 5 4 5 6 7 7 9 9 7 7 8 10 9 9 7 6 5 6 7 7 6 7 7 6 6 7 5 6 7 8 6 6 7 11 8 3 4 7 9 10 12 12 12 12 12 13 15 16 18 17 17 19 19 19 20 20 20 20 22
1 1 2 1 1 2 3 3 3 3 2 1 3 3 3 4 4 5 6 5 4 3 3 4 4 4 4 5 6 7 8 9 8 8 8 7 8 9 9 8 8 7 7 5 6 7 7 7 6 6 7 7 7 7 7 9 11 12 15 15 14 9 5 3 2 5 9 11 9 7 9 11 11 11 12 14 16 16 17 18 20 20 20 23 23
1 1 0 2 1 2 1 2 2 2 2 4 4 4 3 3 4 3 4 5 4 4 4 4 3 3 5 5 6 7 8 7 6 5 6 6 7 7 6 7 7 7 5 5 7 6 8 7 7 6 6 7 9 8 8 7 9 15 11 18 18 16 13 11 8 6 4 4 3 5 7 8 9 9 10 12 14 17 17 18 20 21 21 22 23
2 2 2 1 1 1 3 2 2 4 4 4 4 3 3 3 4 4 5 4 3 3 4 5 6 5 4 5 6 7 7 6 6 6 5 6 7 7 7 7 6 6 6 6 6 6 8 7 7 7 9 9 8 10 7 8 8 11 10 16 19 18 19 16 12 11 8 8 10 11 9 7 6 5 2 5 11 15 18 19 17 17 19 20 20
1 1 3 4 3 4 2 4 5 5 5 4 4 4 3 3 3 4 4 4 3 2 3 4 5 6 5 5 6 6 7 6 6 6 6 6 7 7 8 9 7 5 4 4 5 6 7 6 7 8 10 12 9 8 8 8 8 12 14 11 17 20 20 17 13 11 10 9 8 7 7 6 9 7 5 4 7 12 14 11 10 13 16 18 19
1 2 2 2 3 3 3 4 5 5 5 4 4 4 3 4 3 4 3 3 2 2 4 4 5 6 6 6 6 6 6 6 6 6 6 6 7 7 8 8 7 6 5 5 5 9 7 5 9 12 10 9 9 9 8 7 8 14 12 11 12 22 18 15 14 15 14 9 6 5 5 6 6 9 7 9 8 4 11 7 6 8 11 13 17
1 1 0 2 2 2 3 5 5 5 5 4 4 4 3 3 3 3 3 3 2 2 3 4 5 6 6 5 4 5 6 6 6 6 6 6 5 5 6 6 7 7 5 5 5 7 8 6 7 9 9 8 8 9 11 9 8 13 15 11 10 13 19 17 17 17 15 15 13 7 7 5 5 6 7 7 8 10 11 9 8 5 7 7 8
2 3 1 1 1 1 3 5 5 5 5 4 4 4 4 3 4 3 3 4 2 3 4 3 5 4 5 6 5 5 6 6 6 5 6 5 5 5 5 6 6 6 5 6 6 6 8 10 6 8 8 7 7 7 8 8 10 10 10 10 11 12 18 20 19 20 19 18 19 16 8 7 6 6 6 5 4 6 7 6 3 3 2 6 3
2 1 1 2 3 3 3 4 5 5 5 5 5 5 4 4 4 3 4 3 2 2 2 3 4 4 5 5 5 5 5 6 5 6 6 5 6 6 6 5 5 5 5 5 6 7 6 8 8 7 8 5 5 6 7 7 10 9 9 10 11 13 21 22 21 21 20 20 18 19 17 10 7 5 4 5 6 7 8 8 6 3 1 4 7
3 2 3 2 3 3 4 5 5 5 5 6 5 5 4 4 4 5 4 2 2 2 3 3 3 4 5 6 5 5 6 5 5 4 5 5 5 5 6 5 5 5 6 5 5 7 7 6 7 7 6 8 8 7 8 7 8 8 9 9 10 14 19 20 23 22 21 21 21 20 19 18 15 9 9 9 9 8 9 9 8 8 8 5 1
4 3 3 2 2 3 4 4 5 5 5 6 5 5 4 3 3 4 5 3 3 3 4 3 4 5 5 6 6 6 6 5 5 5 5 6 5 5 6 5 5 5 5 5 6 6 7 6 6 6 6 8 7 6 7 6 7 11 9 9 10 10 12 11 21 23 22 22 22 20 19 18 19 20 19 16 12 11 9 8 9 7 7 7 10
4 4 3 2 3 3 3 3 4 4 4 4 5 5 4 4 4 5 5 3 3 4 3 4 4 4 5 5 5 6 6 6 5 6 6 6 5 5 5 5 6 6 6 6 5 6 6 6 5 6 8 8 5 8 8 8 7 7 9 10 10 10 10 10 12 21 22 22 22 21 20 20 21 21 20 19 16 14 15 15 12 9 6 6 5
5 4 3 3 3 4 4 4 4 5 5 5 5 5 5 5 6 4 4 4 4 4 3 4 4 4 5 5 5 6 6 6 6 7 6 6 6 6 5 6 6 6 5 6 6 5 6 5 5 7 9 7 8 6 6 8 8 8 10 9 8 9 9 8 9 12 22 22 21 21 21 22 22 21 20 20 19 19 19 19 18 17 17 16 10
6 5 4 4 4 4 4 4 5 5 5 5 5 5 5 5 5 5 4 4 4 4 4 3 3 3 4 5 5 5 5 6 6 7 7 7 6 6 7 6 6 6 6 6 5 6 6 6 5 7 8 7 7 6 7 8 9 9 10 10 9 8 9 9 9 9 18 21 22 21 21 20 20 20 19 19 19 19 19 19 19 17 16 15 13
6 5 4 4 5 5 5 6 5 5 6 5 5 6 6 5 5 5 5 4 3 3 3 3 3 4 4 5 5 5 4 5 6 7 7 6 6 6 7 6 5 6 6 6 6 5 4 5 6 6 6 5 5 4 5 7 9 10 9 9 10 10 10 9 10 10 12 17 19 20 19 19 18 18 19 19 20 20 20 20 19 18 15 14 14
5 5 5 5 6 6 6 7 6 6 6 6 6 6 5 5 5 5 4 3 4 3 3 3 2 3 3 4 4 5 5 5 6 6 7 7 6 6 7 6 6 6 5 5 5 5 4 6 5 5 5 5 5 6 5 7 8 10 10 10 10 9 10 10 8 8 11 12 13 16 17 18 18 18 18 18 19 19 18 17 18 18 16 15 14
5 5 5 5 5 7 6 6 6 6 6 6 6 6 6 6 5 5 4 3 4 3 3 2 2 2 3 3 4 4 4 5 6 6 6 6 6 7 7 6 6 5 5 5 5 5 5 6 5 5 4 4 5 6 7 7 8 9 9 9 10 10 10 10 9 8 9 9 8 9 11 13 16 18 19 18 18 19 19 19 19 19 18 17 16
7 6 5 6 5 6 6 6 6 7 6 6 6 6 6 6 5 5 5 4 4 3 3 2 1 1 1 2 3 4 4 4 5 6 6 5 5 6 6 6 6 5 5 5 5 4 5 5 6 5 5 6 6 7 8 8 9 7 8 8 9 9 9 10 8 8 7 8 12 16 15 14 16 15 16 18 18 18 18 19 20 21 19 18 16
7 7 6 6 5 6 6 6 6 7 7 6 6 6 6 6 5 5 5 4 4 3 3 2 1 1 1 1 2 3 5 4 5 6 6 4 4 5 5 5 5 6 5 5 4 4 5 5 6 6 7 7 7 7 6 7 8 8 7 8 8 8 9 9 8 7 6 6 8 9 9 11 13 15 14 17 19 20 21 16 21 21 21 19 17
6 7 6 6 6 6 6 6 7 6 6 6 5 6 6 6 5 5 5 5 4 4 3 3 2 2 1 1 1 4 5 5 8 7 7 8 5 5 5 5 5 5 5 5 4 4 5 6 6 6 7 8 7 7 7 7 7 7 6 7 8 8 8 8 8 8 7 8 7 8 8 9 10 11 11 12 12 15 17 19 16 21 22 20 19
6 5 6 5 6 6 7 7 7 6 5 4 6 9 7 6 6 5 5 5 4 4 4 3 3 2 1 2 5 3 2 4 6 7 7 8 9 7 7 5 5 5 5 5 4 5 5 6 6 6 7 8 7 7 7 7 6 6 6 6 7 7 8 8 8 7 7 8 8 9 9 9 9 11 11 11 10 12 10 11 12 14 17 19 19
7 6 6 6 6 6 7 7 7 6 5 5 11 8 6 7 5 5 5 5 5 4 4 4 3 3 2 2 3 4 4 5 5 5 6 6 7 9 9 10 9 7 6 5 5 4 4 5 6 6 7 8 7 7 7 7 6 6 7 6 6 5 5 6 7 6 7 7 8 10 10 9 8 10 10 11 11 10 10 11 16 17 17 17 18
6 6 6 6 6 6 6 6 6 6 5 12 12 10 8 6 5 5 5 5 4 4 4 4 3 3 2 3 3 4 2 3 1 5 6 6 6 7 8 9 10 11 9 7 5 5 5 5 6 6 6 7 7 6 6 6 6 7 7 7 6 6 7 7 7 8 5 4 6 9 9 8 9 11 11 10 10 10 11 14 16 17 17 17 18
7 7 7 7 7 6 6 7 6 6 6 13 13 12 9 7 5 6 4 4 4 4 4 3 2 1 2 3 4 3 4 3 3 2 2 4 5 6 5 8 9 8 7 8 9 6 3 5 5 6 6 6 7 7 6 6 5 7 7 7 7 7 7 8 8 8 6 4 5 7 9 8 9 11 13 11 11 10 10 14 17 16 16 17 17
7 7 7 8 7 7 7 7 6 6 7 13 14 12 11 8 7 7 3 4 3 3 3 2 3 4 4 5 4 4 4 3 2 1 3 2 2 3 2 5 5 5 6 5 4 5 6 6 6 6 6 6 6 5 5 5 7 7 7 8 8 9 10 10 8 7 6 4 6 8 9 9 8 10 12 11 11 11 10 12 15 16 16 16 17
8 8 8 8 7 8 8 8 7 7 7 15 14 13 11 10 8 8 3 4 3 3 3 3 3 5 5 5 4 4 4 3 3 3 2 2 3 4 4 5 5 5 5 4 6 5 4 5 6 6 6 6 5 5 5 6 7 7 7 8 8 8 8 10 10 8 6 5 5 5 9 8 8 9 10 10 11 11 10 11 13 13 14 15 15
6 6 6 7 8 9 9 9 8 7 9 16 14 13 12 10 10 6 4 4 3 4 4 5 5 4 4 4 4 4 4 4 4 2 1 2 4 4 5 6 6 6 6 5 6 8 8 7 6 6 7 9 9 7 7 4 5 5 5 4 5 5 6 7 8 7 8 6 5 6 7 8 7 8 9 9 10 11 11 10 10 11 13 13 14
7 7 7 7 8 9 10 9 9 8 9 13 14 14 13 12 10 5 5 4 4 5 5 6 5 5 5 6 5 4 5 4 5 1 4 2 4 4 4 5 5 4 6 5 5 7 8 8 10 11 11 10 9 8 8 9 8 6 2 4 4 4 4 6 6 7 8 7 5 5 7 9 7 8 9 8 9 10 10 10 10 10 11 12 12
8 8 7 7 7 8 10 10 10 9 9 12 15 14 14 14 10 6 5 5 5 5 6 6 5 5 4 5 4 5 5 6 5 2 4 4 3 4 4 5 6 5 5 4 5 4 4 6 8 8 7 6 5 4 4 6 7 5 2 5 3 3 4 4 6 6 6 7 6 5 7 8 7 7 8 8 8 8 9 9 9 9 12 12 12
6 7 7 7 8 8 9 10 11 10 9 11 14 15 15 14 10 5 5 5 6 6 6 6 6 5 5 5 3 2 6 7 6 3 4 6 4 3 4 4 5 5 5 5 4 5 5 5 6 6 6 6 4 3 3 1 4 3 4 4 3 3 3 4 5 5 6 6 5 2 5 5 5 6 6 6 8 8 7 7 7 8 8 9 9
Wind_Direction
357 6 356 3 335 336 338 10 357 8 347 5 11 2 352 348 349 343 359 340 335 343 339 333 325 340 328 330 320 323 318 308 249 214 260 296 246 159 181 194 209 208 209 208 210 211 208 209 209 208 205 203 201 202 203 204 205 204 205 206 207 205 205 206 204 205 204 205 205 205 204 204 203 200 200 200 203 201 202 202 201 201 201 202 202
31 347 340 351 334 342 350 6 346 2 356 359 2 1 351 343 345 347 351 344 340 347 330 337 334 334 342 324 325 325 312 311 307 289 297 295 286 151 175 187 206 208 209 210 211 210 211 210 210 209 208 206 203 202 204 205 204 205 204 205 208 207 207 206 207 207 206 205 206 206 205 205 205 201 201 200 201 204 203 203 203 202 203 204 205
341 345 333 343 340 351 359 351 351 357 358 350 359 3 343 336 349 344 348 343 334 332 328 327 331 331 342 327 331 325 324 318 311 307 308 285 298 356 175 190 198 207 210 211 211 210 211 211 211 211 210 209 207 204 205 204 205 205 205 203 205 208 208 208 209 209 208 205 205 206 206 204 204 203 202 203 202 203 206 206 205 205 203 203 206
333 326 357 328 344 357 343 352 350 353 356 347 353 357 330 342 340 345 342 335 328 337 339 346 350 348 342 329 333 330 327 331 317 314 297 309 326 306 302 197 190 208 211 213 211 211 211 210 211 211 211 210 209 209 207 206 205 206 206 204 204 207 208 210 209 210 210 209 207 205 206 206 205 204 204 204 203 204 202 204 208 210 208 207 206
345 331 325 330 350 335 335 341 0 344 349 340 347 337 337 339 342 343 347 336 345 344 348 357 334 334 330 320 326 323 324 313 307 300 306 308 273 273 259 286 265 199 215 213 211 212 211 211 211 211 211 212 210 211 210 207 208 207 207 206 204 206 209 209 210 211 210 210 210 208 207 206 206 205 204 205 207 206 203 202 203 208 211 213 211
317 350 321 333 329 312 348 340 349 346 330 345 337 346 344 337 348 345 355 352 343 1 355 329 340 327 323 317 320 319 317 309 306 306 292 282 276 233 264 261 225 212 217 209 212 211 212 211 210 211 213 212 212 212 213 211 210 210 209 207 206 207 209 210 210 210 209 209 210 209 208 207 207 206 204 206 207 209 208 206 202 202 204 208 214
315 320 307 327 309 329 327 344 344 331 322 342 335 338 334 336 350 339 355 350 344 2 330 332 332 324 325 318 317 324 324 320 319 303 306 325 310 285 275 248 263 201 211 206 200 208 211 210 209 211 212 215 214 213 215 212 210 211 210 211 209 209 211 212 212 209 210 210 210 210 208 207 206 207 208 208 208 209 208 209 211 211 208 208 213
301 310 306 315 309 321 329 336 317 312 326 326 336 335 333 332 344 339 357 348 341 333 330 329 320 324 325 322 326 336 324 328 322 334 333 314 302 299 262 272 283 260 290 254 200 182 201 211 210 208 211 214 216 215 215 215 212 211 213 213 213 213 213 215 214 212 211 211 210 210 209 209 208 206 207 208 209 210 209 207 208 211 207 209 212
281 292 296 298 311 318 325 328 331 314 329 329 340 331 333 338 343 340 1 337 326 333 335 319 318 317 322 329 338 332 333 338 331 343 326 323 331 315 316 269 208 256 245 254 249 181 179 205 214 209 209 213 215 216 215 217 215 212 214 212 214 216 215 218 218 217 216 215 214 211 210 209 209 209 208 208 209 209 210 209 212 212 210 207 209
278 292 298 307 309 310 322 328 322 325 327 340 335 337 336 332 330 343 344 337 328 320 311 324 323 329 328 335 332 330 341 342 346 319 344 343 346 324 313 359 333 326 271 285 289 235 152 176 205 220 220 217 218 219 218 220 218 217 212 217 212 214 216 218 220 219 220 222 220 219 215 211 211 208 209 210 209 208 208 211 213 212 213 210 211
270 279 282 302 305 316 307 331 319 326 333 340 336 334 330 331 329 335 344 339 315 316 330 322 332 329 334 337 331 350 354 348 340 8 356 350 352 317 334 22 355 344 348 242 224 199 47 140 161 198 222 220 223 225 224 221 222 221 218 226 225 223 234 228 224 225 229 229 229 230 227 220 214 210 209 210 211 209 207 211 212 213 216 216 218
281 279 280 289 304 308 322 317 318 326 338 339 338 327 334 335 337 336 326 325 317 328 322 345 330 327 336 333 335 347 18 343 12 359 344 1 6 343 347 336 352 342 314 310 310 279 192 178 170 197 230 193 210 220 227 228 249 297 273 243 254 232 249 258 285 272 244 223 244 271 263 256 256 241 226 214 212 207 213 213 215 215 217 219 220
269 275 286 285 287 300 308 317 324 333 331 337 329 329 330 327 323 344 330 335 328 333 352 345 330 330 334 336 345 2 23 21 13 354 13 23 353 358 354 344 3 333 329 318 289 302 304 249 223 248 262 90 227 229 238 62 217 208 204 209 216 225 228 211 220 230 243 273 245 245 250 263 258 259 259 268 281 291 256 219 222 217 227 227 222
277 278 281 289 292 296 306 316 319 335 336 321 319 322 319 320 339 322 326 334 334 348 8 344 339 343 333 336 359 350 53 30 11 2 12 357 8 1 344 354 4 346 349 322 327 310 298 308 318 312 356 324 180 176 193 201 226 221 200 208 209 214 219 222 226 232 244 250 252 257 241 237 235 238 234 230 207 215 236 227 220 215 218 224 229
271 262 264 258 289 312 303 308 328 328 320 325 337 326 327 335 331 338 332 334 343 356 9 4 337 342 328 331 357 353 49 25 359 8 12 351 6 358 358 340 10 349 341 336 343 330 321 327 309 0 336 322 342 96 162 173 206 222 218 216 213 208 213 229 226 235 230 222 215 220 217 225 223 224 212 214 210 211 214 215 215 217 215 218 218
306 299 279 312 305 310 301 316 317 317 317 327 326 319 343 338 349 341 340 336 351 351 10 9 3 348 356 345 342 7 9 15 346 23 359 14 9 356 10 341 346 350 340 356 352 357 332 342 359 7 3 25 24 316 114 142 170 209 208 211 216 207 203 192 208 220 222 226 229 228 225 241 248 233 216 218 216 217 221 222 220 217 217 213 212
311 313 313 333 292 289 309 313 308 315 327 320 324 342 349 334 6 340 351 352 344 346 3 25 19 16 352 351 357 19 15 354 340 11 6 11 16 2 20 350 351 359 3 8 358 353 354 13 14 23 25 24 18 15 32 115 159 151 169 189 200 203 194 178 204 219 223 227 226 219 215 217 225 222 216 214 215 216 216 214 219 222 219 213 209
313 342 338 336 334 285 301 308 313 322 324 330 334 327 345 0 1 349 350 9 346 346 354 34 24 22 27 46 27 18 351 353 354 3 7 11 28 5 24 10 7 6 3 4 15 357 2 17 35 30 45 28 20 19 12 57 66 114 105 91 114 130 179 197 233 230 223 222 222 221 221 222 223 220 216 220 221 219 220 219 221 223 227 221 216
347 358 352 353 284 290 290 295 314 317 329 325 327 338 1 16 2 354 4 5 358 355 3 1 27 28 30 51 60 52 13 11 8 357 6 354 37 14 22 15 15 7 3 2 19 11 7 2 41 30 40 34 23 9 11 68 65 75 69 83 85 108 134 160 206 227 228 223 222 224 223 222 225 222 218 220 223 224 221 217 219 223 226 228 225
356 8 304 270 289 292 275 292 311 324 338 320 343 6 0 26 11 12 11 7 13 13 8 2 8 39 26 22 25 41 38 32 20 6 3 355 8 13 37 4 19 23 14 360 15 10 14 9 22 25 34 36 19 10 20 14 67 89 123 113 122 152 155 175 189 203 219 222 220 223 222 221 222 221 221 221 222 223 224 224 224 224 225 229 232
55 340 308 290 249 286 290 286 311 318 322 348 21 30 26 20 11 19 15 22 28 28 14 15 14 30 30 27 21 20 18 39 17 16 13 -0 2 3 22 1 16 29 22 358 8 9 18 20 25 9 34 44 30 11 42 42 26 20 29 14 49 184 180 177 185 209 224 218 211 214 221 222 224 225 221 219 220 221 223 226 229 232 231 229 230
157 174 258 255 265 248 268 297 298 351 338 31 35 71 55 44 39 31 31 32 41 40 28 29 33 29 32 26 30 22 20 26 24 8 16 4 350 358 9 6 2 26 27 15 3 2 25 27 16 19 21 53 70 23 28 30 37 36 42 45 48 48 216 204 204 228 239 231 226 222 227 227 225 227 228 227 223 221 221 224 229 231 232 233 232
309 342 329 273 257 278 314 337 354 51 11 68 50 24 37 35 62 65 50 33 48 51 59 47 50 26 28 31 20 32 20 22 13 7 2 360 353 353 4 329 350 20 23 30 19 15 23 28 6 22 24 25 37 34 30 45 41 44 43 40 42 38 53 109 255 254 245 240 242 230 223 224 229 233 231 231 231 231 228 226 226 228 230 234 234
249 246 179 20 7 353 7 12 41 36 55 39 41 34 34 35 41 45 71 66 53 43 30 40 19 61 33 20 30 28 32 23 16 13 4 354 345 355 359 338 347 25 19 27 35 18 32 25 16 18 26 44 43 42 26 31 49 39 48 44 43 37 40 42 37 6 324 325 281 257 237 227 229 236 239 233 230 229 224 228 230 229 232 237 239
240 315 66 13 349 48 15 22 72 66 56 61 75 59 36 44 59 68 74 64 49 30 51 43 39 20 25 32 19 29 31 23 13 12 12 352 1 352 358 317 2 18 26 9 37 30 37 30 23 27 14 31 37 38 35 30 44 38 39 55 45 43 38 37 36 29 27 18 25 21 22 15 354 325 316 291 251 238 232 222 222 231 240 242 246
349 6 357 357 353 38 68 80 84 95 95 84 76 61 35 53 68 75 84 78 83 81 62 59 53 40 20 25 26 31 28 21 17 13 7 359 3 2 343 339 15 25 35 40 43 36 39 32 32 37 41 30 25 37 38 29 42 47 50 52 46 40 41 33 37 34 20 18 14 2 0 5 1 347 336 282 242 252 258 258 261 258 253 250 249
21 41 358 338 30 71 78 107 110 110 116 119 108 97 81 72 79 83 92 100 54 29 59 52 54 50 38 26 31 34 21 25 21 18 15 3 2 3 348 354 2 12 35 39 39 40 43 41 39 41 31 40 30 39 40 26 37 47 52 54 53 47 43 33 34 38 37 35 17 5 3 0 333 338 339 22 18 249 268 270 284 326 339 314 283
146 324 271 345 70 104 133 110 117 126 122 110 109 100 103 98 107 112 104 92 96 64 61 58 64 62 44 39 36 34 32 22 23 22 19 7 10 352 351 355 356 1 16 40 25 46 43 39 53 58 53 50 43 48 47 37 42 47 54 57 53 50 47 39 32 35 35 29 30 31 22 2 344 304 329 8 3 10 47 52 23 351 285 270 291
258 184 191 87 116 130 112 119 122 118 118 115 105 110 119 121 99 97 92 83 66 62 47 42 50 49 60 33 6 28 27 28 25 26 26 10 2 358 356 15 352 346 6 27 33 28 33 39 38 36 46 62 59 55 52 46 41 49 58 58 56 52 46 44 37 37 34 33 30 31 12 10 6 8 1 353 9 36 47 52 35 328 251 255 241
204 356 335 160 129 152 135 128 134 128 122 123 117 114 114 107 116 110 79 79 75 61 38 55 62 58 51 43 356 24 41 24 27 23 29 22 11 2 12 22 356 350 355 5 19 35 35 54 35 46 37 70 90 70 68 61 47 52 56 60 57 57 52 45 41 38 37 36 34 26 28 32 17 21 20 36 42 53 62 67 80 64 12 240 200
207 211 241 178 165 147 144 150 140 144 137 122 127 121 124 125 133 120 116 118 95 83 77 60 51 54 51 43 18 27 31 30 15 33 49 32 24 8 17 11 8 359 353 355 10 42 37 44 53 39 52 44 40 71 75 67 54 53 59 57 59 65 59 46 41 39 37 37 37 37 31 27 44 61 67 64 71 69 67 75 75 47 20 8 259
200 195 236 217 163 168 166 159 150 147 142 132 128 127 129 130 129 115 112 112 103 86 70 49 41 46 46 46 38 25 22 16 22 13 48 59 33 18 11 9 20 356 349 351 13 34 44 47 52 63 62 70 67 61 71 76 67 55 60 61 55 60 62 54 43 40 40 39 40 37 35 37 42 49 56 55 56 53 65 71 68 65 47 39 46
192 209 220 188 185 179 166 155 153 131 129 126 120 123 126 123 98 100 117 115 103 91 82 77 69 60 53 46 44 35 21 11 17 13 20 45 44 35 16 9 19 12 355 356 16 38 45 48 48 61 46 49 86 50 61 72 61 61 61 57 50 52 60 58 50 43 43 43 45 42 35 37 42 44 48 52 55 53 47 45 40 51 66 94 117
210 210 208 203 181 163 171 162 145 136 129 132 139 130 133 128 127 131 126 127 118 109 104 89 74 60 51 49 40 40 29 21 16 26 6 35 35 38 37 24 20 19 356 355 5 30 57 52 59 52 58 51 50 62 62 62 65 59 62 59 55 51 54 64 58 48 47 48 45 45 42 39 40 42 44 45 40 40 43 43 38 31 28 28 29
198 218 197 208 159 170 169 149 153 147 150 146 135 134 127 136 133 131 136 136 137 139 120 110 98 73 58 48 48 39 37 24 18 38 16 24 37 33 40 30 22 13 8 3 2 28 45 58 41 61 65 60 53 33 47 62 66 63 61 58 57 57 58 56 58 56 51 53 52 50 47 45 43 43 44 48 51 50 48 49 48 41 35 36 40
203 200 208 181 158 163 170 160 162 150 150 147 135 131 137 138 136 142 150 161 136 105 103 94 68 62 46 39 32 25 28 52 29 34 34 25 31 37 35 35 26 26 5 352 10 22 33 70 56 58 64 67 70 70 72 64 67 63 59 63 57 54 53 54 55 59 64 63 58 53 50 50 46 42 40 42 47 50 49 48 47 46 42 44 48
218 191 187 168 163 173 183 174 164 157 148 138 133 137 139 139 146 152 141 141 123 123 119 98 85 70 61 43 38 34 24 25 41 38 40 28 34 33 34 31 28 21 8 2 3 31 49 66 76 67 66 61 55 56 61 83 83 77 69 60 57 56 56 50 52 56 70 72 66 58 56 52 47 45 42 40 42 45 46 45 47 45 44 45 49
219 209 186 194 180 185 180 177 162 145 139 139 140 142 143 148 149 145 147 146 134 140 150 135 99 63 63 63 39 31 29 34 36 37 30 29 33 37 30 35 33 32 23 3 15 30 51 66 77 82 73 69 73 69 70 84 89 88 81 73 66 58 57 58 56 59 55 52 46 54 59 59 54 49 44 40 38 41 43 43 44 42 36 38 41
201 213 200 199 184 180 169 171 156 142 140 141 142 145 146 147 147 149 153 152 151 152 142 152 149 99 46 53 56 34 34 39 40 29 27 33 38 41 31 34 31 28 34 29 14 40 50 61 70 73 75 70 70 75 73 75 75 76 85 84 77 66 57 58 66 64 62 64 62 57 56 57 53 50 48 45 39 37 43 43 45 47 44 41 40
200 204 201 193 179 168 164 157 139 137 139 143 147 147 151 152 155 159 164 162 159 153 147 161 118 101 97 76 52 43 32 39 31 34 23 24 35 48 35 36 37 35 34 34 20 32 44 60 62 64 66 69 76 81 85 77 73 67 65 76 79 75 67 59 49 72 84 71 58 54 53 55 58 55 50 46 42 37 33 39 41 47 50 45 46
204 202 196 192 177 163 155 149 140 142 148 152 157 156 155 160 162 168 169 168 167 161 168 166 146 184 211 147 42 66 56 50 62 56 44 23 13 40 39 37 44 48 39 43 18 34 47 57 66 72 73 70 70 74 66 60 58 65 71 69 75 78 81 69 54 38 53 65 60 60 57 55 58 54 51 47 38 35 34 34 39 45 46 48 45
193 187 178 182 171 163 159 151 148 148 154 162 145 150 155 161 171 168 173 170 172 168 176 177 172 174 189 336 81 48 87 75 75 71 59 55 50 35 19 23 36 50 57 50 45 42 50 61 60 67 73 69 69 63 64 59 66 73 77 79 79 88 87 77 66 46 45 57 60 62 61 56 59 61 58 53 47 45 40 38 40 43 39 46 48
177 169 172 169 171 170 166 159 156 161 164 144 138 134 140 162 171 170 172 174 175 177 186 197 177 186 153 170 145 167 178 137 102 71 52 57 58 59 57 46 35 27 37 59 67 56 57 61 66 68 71 75 71 70 62 64 58 59 64 57 74 66 64 68 72 70 45 66 75 75 70 61 57 61 56 54 49 45 45 43 38 41 42 43 46
172 167 173 174 172 168 164 160 165 167 157 123 136 134 144 162 185 177 182 181 180 180 189 201 191 191 157 180 181 182 157 34 48 127 99 66 66 72 69 58 51 43 35 29 26 74 61 67 69 66 80 79 76 68 65 55 59 60 61 72 69 70 75 77 73 70 60 48 72 82 82 73 66 64 63 58 59 57 48 37 42 47 49 50 52
173 176 178 174 173 168 162 161 166 168 142 137 143 148 152 168 191 215 180 174 177 188 182 200 174 187 174 153 181 175 123 183 241 80 91 106 95 84 107 114 94 84 49 26 20 23 46 81 71 66 64 83 82 75 63 59 50 63 70 71 72 79 78 74 76 87 89 63 69 78 81 85 85 75 71 61 56 53 54 40 37 45 48 51 53
179 182 181 174 168 165 162 165 163 175 140 148 150 154 159 165 179 234 169 179 185 168 172 178 180 171 159 157 168 157 147 186 114 135 77 79 111 100 128 78 71 86 104 86 57 41 61 81 89 88 79 73 84 84 60 49 60 62 69 73 77 78 80 82 82 79 82 86 88 89 86 82 79 83 80 77 70 67 59 41 43 46 50 50 54
181 181 176 175 169 165 163 166 168 175 146 150 153 157 159 164 170 221 172 185 169 158 168 164 167 159 169 164 156 145 159 167 69 49 108 113 113 115 123 106 77 61 38 20 27 18 67 92 100 99 99 99 100 85 73 67 65 68 65 72 79 87 94 119 114 104 94 81 75 81 89 83 85 86 86 85 79 75 76 62 48 51 50 54 54
178 170 168 172 166 166 167 170 173 179 143 154 155 157 157 159 175 208 175 180 167 163 159 160 160 160 163 152 149 145 149 138 98 355 35 117 117 124 128 119 116 97 70 43 14 36 34 40 48 56 66 54 43 42 25 47 106 115 107 103 98 93 87 85 87 97 86 89 96 95 93 83 80 88 94 97 93 85 80 81 64 62 64 61 63
172 172 171 171 169 169 169 174 175 172 148 161 157 156 156 161 182 201 168 174 168 168 156 161 161 158 159 157 158 147 154 134 110 18 314 280 115 120 132 121 109 103 101 89 48 32 41 61 67 63 55 52 50 36 23 359 360 354 81 89 72 83 89 90 92 89 91 98 91 94 103 103 98 92 87 81 86 91 90 84 87 79 73 74 73
178 174 168 166 168 172 173 176 179 170 159 159 159 157 160 171 191 183 169 176 169 158 155 162 160 163 138 40 332 159 147 133 128 256 272 280 119 126 130 134 133 125 121 119 124 99 101 86 88 93 98 107 112 114 54 359 343 326 344 57 51 62 68 70 86 93 97 92 85 88 99 93 107 105 107 110 101 94 100 106 115 120 108 88 83
175 166 170 168 168 173 178 180 173 173 158 155 162 161 166 176 194 179 181 173 169 159 160 162 160 157 147 158 8 4 136 123 138 240 294 299 120 114 122 133 134 127 124 130 136 137 140 143 139 141 146 167 166 128 98 253 292 357 44 48 28 56 83 100 118 139 115 91 83 84 108 111 113 119 117 110 97 93 96 97 110 104 98 96 94